Home   Weather   Porto Novo   Past weeks

Flag for Benin Past Weather in Porto Novo, Benin — Yesterday and Last 2 Weeks

Now
86 °F

Passing clouds.


Feels Like: 99 °F
Forecast: 81 / 91 °F
Wind: 10 mph from Southwest

Location: Cotonou Airport

Current Time: Apr 24, 2017 at 8:18:43 pm

Latest Report: Apr 24, 2017 at 7:00 pm


Visibility: N/A

Pressure: 29.77 "Hg

Humidity: 79%

Dew Point: 79 °F

Location of Porto NovoLocation

Past Weather in Porto Novo — Graph

°F

Porto Novo Temperature Yesterday

Maximum temperature yesterday: 90 °F (at 12:00 pm)
Minimum temperature yesterday: 82 °F (at 12:00 am)
Average temperature yesterday: 85 °F

High & Low Weather Summary for the Past Weeks

 TemperatureHumidityPressure
High91 °F (Apr 10, 12:00 pm)94% (Apr 10, 12:00 am)29.89 "Hg (Apr 10, 12:00 am)
Low75 °F (Apr 10, 3:00 am)63% (Apr 10, 12:00 pm)29.68 "Hg (Apr 11, 3:00 pm)
Average84 °F82%29.78 "Hg
* Reported Apr 9 7:00 pm — Apr 24 7:00 pm, Porto Novo, Weather by CustomWeather, © 2017

Note: Actual official high and low records may vary slightly from our data, if they occured in-between our weather recording intervals... More about our weather records

Advertising

Porto Novo Weather History for the Previous 24 Hours

Scroll right to see more
 ConditionsComfort  
Time TempWeatherWind HumidityBarometerVisibility
7:00 pm
Mon, Apr 24
86 °FPassing clouds.10 mph79%29.77 "HgN/A
6:00 pm86 °FPassing clouds.12 mph79%29.77 "HgN/A
5:00 pm88 °FPassing clouds.14 mph75%29.77 "HgN/A
4:00 pm90 °FPassing clouds.14 mph71%29.77 "HgN/A
3:00 pm88 °FPassing clouds.14 mph75%29.77 "HgN/A
2:00 pm90 °FScattered clouds.14 mph71%29.80 "HgN/A
1:00 pm90 °FScattered clouds.12 mph71%29.83 "HgN/A
12:00 pm91 °FScattered clouds.10 mph67%29.86 "HgN/A
11:00 am90 °FPassing clouds.12 mph71%29.86 "HgN/A
10:00 am88 °FPassing clouds.13 mph75%29.86 "HgN/A
9:00 am84 °FPassing clouds.7 mph84%29.83 "HgN/A
8:00 am81 °FPassing clouds.6 mph94%29.83 "HgN/A
7:00 am81 °FPassing clouds.3 mph89%29.80 "HgN/A
6:00 am81 °FPassing clouds.5 mph89%29.80 "Hg5 mi
5:00 am81 °FPassing clouds.2 mph89%29.80 "Hg5 mi
4:00 am81 °FPassing clouds.No wind89%29.80 "Hg5 mi
3:00 am81 °FPassing clouds.1 mph89%29.83 "Hg5 mi
2:00 am81 °FPassing clouds.No wind89%29.83 "Hg5 mi
1:00 am82 °FPassing clouds.3 mph84%29.86 "Hg5 mi
12:00 am82 °FPassing clouds.7 mph84%29.86 "HgN/A
11:00 pm
Sun, Apr 23
82 °FPassing clouds.7 mph84%29.89 "HgN/A
10:00 pm84 °FPassing clouds.10 mph79%29.86 "HgN/A
9:00 pm84 °FPassing clouds.9 mph79%29.83 "HgN/A
8:00 pm84 °FPassing clouds.12 mph79%29.80 "HgN/A
Weather by CustomWeather, © 2017

See weather overviewHow to use our weather pages